GFSSGP_con_mucape_117.txt.gz
CAPE
0 0 0 0 0 0 0 0 0 0 0 0 0 0 0 0 0 0 277 943 1628 1385 1759 1787 1792 1966 2037 1981 1859 1951 2029 2090 2205 2106 2040 2181 2249 2214 2228 2358 2584 2866 3052 2718 2380 2291 2233 2194 1608
0 0 0 0 0 0 0 0 0 0 0 0 0 0 0 0 18 172 544 1583 1659 1504 1702 1858 1827 1957 1982 1909 1899 2028 2245 2194 2199 2135 2054 2116 2249 2321 2292 2288 2447 2736 2931 2710 2499 2417 2383 2392 1591
0 0 0 0 0 0 0 0 0 0 0 0 0 0 0 0 0 41 387 1735 1769 1538 1638 1768 1884 1918 1900 1829 1848 1974 2166 2120 2107 2115 2167 2152 2215 2342 2377 2272 2468 2855 2989 2596 2227 2264 2684 2019 1544
0 0 0 0 0 0 0 0 0 0 0 0 0 0 0 0 0 0 1100 1901 1895 1761 1647 1736 1920 1878 1845 1775 1771 1918 1950 1876 1904 2045 2194 2252 2297 2301 2250 2103 2513 2902 2946 2755 2616 2782 2308 1793 1501
0 0 0 0 0 0 0 0 0 0 0 0 0 0 0 0 0 449 1582 2107 2164 2094 1981 1847 1857 1936 1953 1964 1838 1825 1859 1766 1814 1991 2129 2201 2336 2314 1983 1896 2318 2784 2905 2878 2731 2553 2097 1776 1512
0 0 0 0 0 0 0 0 0 0 0 0 0 0 0 0 69 283 418 1133 2149 2273 2189 2095 2044 1981 1919 2005 1940 1752 1793 1762 1775 1887 2030 2163 2177 2149 1983 1866 2020 2386 2755 2737 2589 2390 2094 1863 1733
0 0 0 0 0 0 0 0 0 0 0 0 0 0 0 0 0 40 473 1108 2078 2143 2225 2293 2284 1996 1812 1824 1910 1963 1855 1763 1751 1816 1944 2039 1942 1903 1898 1892 1924 2038 2449 2316 2588 2213 1918 1807 1631
0 0 0 0 0 0 0 0 0 0 0 0 0 0 0 0 0 0 339 1330 2124 2082 2132 2234 2262 2006 1826 1667 1723 1831 1972 1917 1810 1790 1913 1995 1889 1754 1755 1759 1811 1901 2049 2155 2305 2116 1906 1873 1681
0 0 0 0 0 0 0 0 0 0 0 0 0 0 0 0 0 0 0 1299 2204 2216 2059 2109 2169 2044 1925 1913 1866 1740 1872 1968 1965 1902 1914 1993 1902 1751 1640 1607 1606 1767 1784 2031 2281 2158 1999 1781 1400
0 0 0 0 0 0 0 0 0 0 0 0 0 0 0 0 0 0 0 0 1907 2322 2315 2215 2131 2077 2194 2233 2147 2051 1741 1951 2023 2017 1940 1923 1996 1769 1708 1626 1564 1619 1718 1787 2223 2227 2060 1876 1442
0 0 0 0 0 0 0 0 0 0 0 0 0 0 0 0 0 0 0 0 437 1962 2380 2383 2335 2387 2500 2253 1929 1854 1815 1798 2030 2657 2378 1927 2544 2563 1844 1700 1671 1590 1595 1630 1827 2049 2116 1872 1596
0 0 0 0 0 0 0 0 0 0 0 0 0 0 0 0 0 0 0 0 0 1008 1005 2541 2653 2736 2558 2199 1911 1700 1434 1483 1645 2172 2649 2870 2615 2668 2742 2245 1859 1640 1540 1544 1562 1672 1900 1938 1646
0 0 0 0 0 0 0 0 0 0 0 0 0 0 0 0 0 0 0 0 0 5 1579 2192 2451 2453 2398 2229 2241 2201 2352 1348 1230 1372 1598 2073 2534 2703 2623 2466 2252 1735 1639 1549 1425 1446 1517 1868 1711
0 0 0 0 0 0 0 0 0 0 0 0 0 0 0 0 0 0 0 0 0 262 1704 2152 2204 1733 2003 2126 1980 1756 1850 1895 1973 1495 1494 1274 1535 1536 1542 1678 1929 1681 1587 1581 1489 1300 1272 1409 1623
0 0 0 0 0 0 0 0 0 0 0 0 0 0 0 0 0 0 0 0 0 37 628 1748 1568 1066 938 1095 1784 1460 1332 1308 1330 1491 1466 1342 1252 1262 1266 1344 1548 1640 1622 1575 1524 1475 1368 1261 1352
0 0 0 0 0 0 0 0 0 0 0 0 0 0 0 0 0 0 0 0 0 0 226 746 676 313 4 138 958 1141 866 829 751 618 953 1187 1308 1492 1418 1305 1265 1282 1513 1311 1375 1454 1576 1477 1408
0 0 0 0 0 0 0 0 0 0 0 0 0 0 0 0 0 0 0 0 0 0 0 6 0 0 0 0 0 0 0 198 497 485 442 369 433 490 697 1291 1351 1281 1107 1003 1138 1257 1742 1401 1498
0 0 0 0 0 0 0 0 0 0 0 0 0 0 0 0 0 0 0 0 0 0 0 0 0 0 0 0 0 0 0 0 0 86 404 404 388 356 299 300 487 829 862 700 534 869 1086 845 914
0 0 0 0 0 0 0 0 0 0 0 0 0 0 0 0 0 0 0 0 0 0 0 0 0 0 0 0 0 0 0 0 0 0 0 0 63 290 289 313 361 389 387 673 811 745 469 531 535
0 0 0 0 0 0 0 0 0 0 0 0 0 0 0 0 0 0 0 0 1 0 0 0 0 0 0 0 0 0 0 0 0 0 0 0 0 0 0 0 260 487 403 404 625 903 994 769 686
0 0 0 0 0 0 0 0 0 0 0 0 0 0 0 0 0 0 0 5 18 3 0 0 0 0 0 0 0 0 0 0 0 0 0 0 0 0 0 0 0 0 134 269 179 738 1094 891 780
0 0 0 0 0 0 0 0 0 0 0 0 0 0 0 0 0 8 26 95 88 40 5 5 0 0 0 0 0 0 0 0 0 0 0 0 0 0 0 0 0 0 0 0 0 47 364 809 737
0 0 0 0 0 0 0 0 0 0 0 0 7 6 1 0 42 45 169 171 98 10 5 13 18 1 0 0 0 0 0 0 0 0 0 0 0 0 0 0 0 0 0 0 0 0 1 418 567
1 0 0 0 0 0 0 0 0 0 0 0 5 11 23 40 53 70 92 111 82 55 0 0 0 0 0 0 0 0 0 0 0 0 0 0 0 0 0 0 0 0 0 0 0 0 12 141 256
3 0 0 0 0 0 0 0 0 0 0 0 0 0 0 7 36 58 64 83 50 7 0 0 0 0 0 0 0 0 0 0 0 0 0 0 0 0 0 0 0 0 0 0 0 0 1 35 137
0 0 0 0 0 0 0 0 0 0 0 0 0 1 3 2 0 2 2 2 0 0 0 0 0 0 0 0 0 0 0 0 0 0 0 0 0 0 0 0 0 0 0 0 0 3 0 9 103
0 0 0 0 0 0 0 0 0 0 0 0 0 0 0 0 0 0 0 0 0 0 0 0 0 0 0 0 0 0 0 0 0 0 0 0 0 0 0 0 0 0 0 0 2 5 5 0 29
0 0 0 0 0 0 0 0 0 0 0 0 0 0 0 0 0 0 0 0 0 0 0 0 0 0 0 0 0 0 0 0 0 0 0 0 0 0 0 0 0 0 0 0 0 5 17 4 45
11 1 0 0 0 0 0 0 0 0 0 0 0 0 0 0 0 0 0 0 0 0 0 1 0 0 0 0 0 0 0 0 0 0 0 0 0 0 0 0 0 0 0 0 1 2 24 1 1
13 6 1 0 0 0 0 0 0 0 0 0 1 0 0 0 0 0 0 0 0 0 0 0 0 0 0 0 0 0 0 0 0 0 0 0 0 0 0 0 0 0 0 0 0 0 0 51 7

GFSSGP_con_mucape_120.txt.gz
CAPE
0 0 0 0 0 0 0 0 0 0 0 0 0 0 0 0 3 0 352 678 1324 1503 1696 1621 1848 1988 2032 1920 1841 1851 2135 2253 2310 2445 2483 2495 2466 2414 2358 2399 2429 2624 2939 2908 2267 2271 2214 1608 1394
0 0 0 0 0 0 0 0 0 0 0 0 0 0 0 0 0 76 368 1289 1550 1515 1730 1696 1876 2017 2046 1917 1913 1987 2201 2345 2303 2338 2428 2459 2494 2479 2450 2431 2525 2799 2928 2868 2371 2199 2326 1920 1206
0 0 0 0 0 0 0 0 0 0 0 0 0 0 0 0 0 120 132 1641 1498 1467 1698 1747 1862 1991 1985 1887 1907 1991 2125 2136 2165 2221 2405 2474 2499 2489 2467 2381 2565 2944 3098 2946 2395 2488 2652 1804 1131
0 0 0 0 0 0 0 0 0 0 0 0 0 0 0 0 1 9 710 1806 1612 1468 1656 1815 1873 1979 1946 1908 1900 1978 1930 1824 1906 1997 2294 2462 2555 2539 2399 2265 2576 2972 3055 2994 2814 2715 2334 1602 1187
0 0 0 0 0 0 0 0 0 0 0 0 0 0 0 0 0 251 1648 1855 1708 1557 1544 1715 1968 1959 1911 1956 1963 1939 1853 1735 1769 1930 2084 2258 2437 2484 2258 2201 2513 2763 2830 2722 2571 2542 1847 1499 1221
0 0 0 0 0 0 0 0 0 0 0 0 0 0 0 0 126 781 1299 1963 2106 2006 1741 1650 1946 1980 1923 1841 1777 1826 1840 1736 1720 1834 1958 2187 2212 2169 2059 2099 2405 2551 2529 2406 2331 2155 1719 1498 1225
0 0 0 0 0 0 0 0 0 0 0 0 0 0 0 0 0 32 254 719 1987 2169 2033 1953 1825 1997 2061 2054 1845 1719 1813 1757 1708 1741 1876 1989 1989 1923 1798 1903 2123 2344 2361 2377 2168 2021 1869 1628 1438
0 0 0 0 0 0 0 0 0 0 0 0 0 0 0 0 0 0 0 837 1802 2025 2078 2042 1942 2017 1925 1921 2049 1954 1812 1785 1742 1729 1798 1890 1864 1834 1799 1711 1826 2008 2289 2328 2347 2167 1908 1667 1520
0 0 0 0 0 0 0 0 0 0 0 0 0 0 0 0 0 0 0 0 1422 1977 1973 2020 2054 2068 1945 1802 1690 1876 1966 1942 1831 1754 1766 1881 1856 1734 1722 1708 1692 1809 2072 2132 2189 2158 1841 1624 1515
0 0 0 0 0 0 0 0 0 0 0 0 0 0 0 0 0 0 0 0 31 1425 1983 1981 2056 2147 1988 1904 1913 1892 1791 1862 1932 1837 1805 1868 1941 1722 1671 1628 1615 1698 1702 1872 1969 2088 1933 1662 1497
0 0 0 0 0 0 0 0 0 0 0 0 0 0 0 0 0 0 0 0 0 114 1586 2140 2104 2121 2075 2137 2155 2012 1960 1898 2329 2476 1856 2163 2592 2708 1815 1670 1533 1527 1568 1559 1659 2070 2062 1856 1639
0 0 0 0 0 0 0 0 0 0 0 0 0 0 0 0 0 0 0 0 0 0 257 1805 2270 2283 2355 2494 2290 1891 1777 1646 1724 2517 2103 1989 2677 2505 2536 2406 1536 1587 1331 1464 1489 1650 2001 1915 1862
0 0 0 0 0 0 0 0 0 0 0 0 0 0 0 0 0 0 0 0 0 0 315 1164 2255 2481 2768 2690 2353 2050 2005 1550 1444 1757 1692 1935 1880 1895 2093 2262 2590 2019 2142 1433 1295 1318 1383 1668 1770
0 0 0 0 0 0 0 0 0 0 0 0 0 0 0 0 0 0 0 0 0 0 44 1005 2290 2420 2469 2707 2360 2202 2067 1919 1821 1267 1119 1212 1523 1697 1892 1773 1959 2109 2224 2012 1630 1327 1298 1507 1813
0 0 0 0 0 0 0 0 0 0 0 0 0 0 0 0 0 0 0 0 0 0 65 658 1963 2116 2083 2071 1812 1865 1625 1525 1919 1986 1567 1217 1118 972 935 1272 1164 1409 1650 1331 1443 1362 1418 1290 1489
0 0 0 0 0 0 0 0 0 0 0 0 0 0 0 0 0 0 0 0 0 0 190 542 1286 1257 1281 1238 1232 1449 1489 1376 1243 1114 1003 1009 959 1104 1112 1084 1095 1166 1314 1239 1086 1094 1149 1103 1011
0 0 0 0 0 0 0 0 0 0 0 0 0 0 0 0 0 0 0 0 0 0 77 370 982 1078 705 514 776 925 904 889 692 460 322 308 325 325 347 443 915 1234 1229 1237 1057 952 955 1008 994
0 0 0 0 0 0 0 0 0 0 0 0 0 0 0 0 0 0 0 0 0 0 0 49 536 726 643 284 10 0 0 0 0 0 0 11 42 81 148 109 99 130 196 364 994 680 728 615 680
0 0 0 0 0 0 0 0 0 0 0 0 0 0 0 0 0 0 0 0 0 0 0 1 251 536 182 33 0 0 0 0 0 0 0 0 0 0 0 32 133 119 38 82 153 417 496 276 206
0 0 0 0 0 0 0 0 0 0 0 0 0 0 0 0 0 0 0 0 0 0 0 0 0 1 0 0 7 0 0 0 0 0 0 0 0 0 0 0 0 0 0 25 86 188 483 555 768
0 0 0 0 0 0 0 0 0 0 0 0 0 0 0 0 0 1 2 2 5 3 6 52 74 44 31 22 7 0 0 0 0 0 0 0 0 0 0 0 0 0 0 0 0 7 113 393 530
0 0 0 0 0 0 0 0 0 0 0 0 0 0 0 0 1 4 12 17 40 28 55 132 124 149 5 9 0 0 0 0 0 0 0 0 0 0 0 0 0 0 0 0 0 0 0 0 98
0 0 0 0 0 0 0 0 0 0 0 0 0 0 0 2 1 5 13 29 27 16 61 61 88 68 0 0 0 0 0 0 0 0 0 0 0 0 0 0 0 0 0 0 0 0 0 0 1
0 0 0 0 0 0 0 0 0 0 0 0 0 0 0 0 3 7 5 21 8 25 66 69 42 5 5 0 0 0 0 0 0 0 0 0 0 0 0 0 0 0 0 0 0 0 0 0 2
0 0 0 0 0 0 0 0 0 0 0 0 0 0 0 0 2 17 10 8 12 49 6 2 22 16 0 0 0 0 0 0 0 0 0 0 0 0 0 0 0 0 0 0 0 0 0 0 0
0 0 0 0 0 0 0 0 0 0 0 0 0 0 0 0 0 0 0 0 0 0 0 0 0 0 0 0 0 0 0 0 0 0 0 0 0 0 0 0 0 0 0 0 0 0 2 2 0
0 0 0 0 0 0 0 0 0 0 0 0 0 0 0 0 0 0 0 0 0 0 0 0 0 0 0 0 0 0 0 0 0 0 0 0 0 0 0 0 0 0 0 0 0 0 0 4 1
1 1 0 0 0 0 0 0 0 0 0 0 0 0 0 0 0 0 0 0 0 0 0 0 0 0 0 0 0 0 0 0 0 0 0 0 0 0 0 0 0 0 0 0 0 0 3 1 6
8 2 1 15 0 0 0 0 0 0 0 0 0 0 0 0 0 0 0 0 0 0 0 0 0 0 0 0 0 0 0 0 0 0 0 0 0 0 0 0 0 0 0 0 0 0 0 0 0
19 7 9 0 0 0 0 0 0 0 0 0 0 0 0 0 0 0 0 0 0 0 0 0 0 0 0 0 0 0 0 0 0 0 0 0 0 0 0 0 0 0 0 0 0 0 0 0 0

GFSSGP_con_mucape_123.txt.gz
CAPE
0 0 0 0 0 0 0 0 0 0 0 0 0 0 0 0 0 0 623 945 1593 2075 2063 2040 1837 1961 1903 1841 1800 1907 2122 2585 2696 2547 2301 2233 2237 2176 2165 2313 2476 2650 2809 2804 2375 2211 1828 1366 1355
0 0 0 0 0 0 0 0 0 0 0 0 0 0 0 0 0 33 488 1640 1614 2055 2094 2178 1900 2000 1944 1858 1842 1998 2289 2455 2700 2739 2584 2406 2326 2327 2310 2255 2423 2736 2909 2923 2445 2422 2190 1713 1180
0 0 0 0 0 0 0 0 0 0 0 0 0 0 0 0 0 43 47 1961 1697 1951 2051 2026 1932 2009 1976 1901 1890 1951 2185 2230 2366 2627 2784 2725 2650 2617 2514 2287 2369 2814 3123 3079 2606 2619 2624 1581 977
0 0 0 0 0 0 0 0 0 0 0 0 0 0 0 0 0 12 1420 1915 1822 1898 2099 1778 1872 2004 2011 1980 1989 1998 1980 1966 2012 2266 2694 2836 2864 2822 2587 2331 2574 2995 3077 3083 2764 2573 2459 1415 955
0 0 0 0 0 0 0 0 0 0 0 0 0 0 0 0 80 1314 2000 1962 1942 1973 2096 2200 1847 2005 2064 2127 2096 2008 1866 1813 1843 2011 2300 2609 2728 2700 2459 2342 2607 2917 2999 2901 2694 2254 2101 1482 1090
0 0 0 0 0 0 0 0 0 0 0 0 0 0 0 0 2 153 764 1959 2360 2240 2141 2273 1954 2005 2076 2099 2053 2015 1920 1728 1765 1837 2049 2354 2488 2430 2271 2233 2481 2714 2768 2708 2525 2377 1977 1471 1181
0 0 0 0 0 0 0 0 0 0 0 0 0 0 0 0 0 0 0 873 2148 2398 2150 2257 2519 2388 2038 2009 1973 1964 1963 1827 1755 1770 1844 2044 2168 2278 2173 2168 2348 2505 2499 2421 2324 2255 1694 1414 1206
0 0 0 0 0 0 0 0 0 0 0 0 0 0 0 0 0 0 0 206 1655 2342 2348 2165 2121 2595 2729 2643 1904 1790 1831 1855 1784 1760 1805 1830 1888 1905 1973 2005 2178 2349 2283 2184 2133 2037 1626 1504 1324
0 0 0 0 0 0 0 0 0 0 0 0 0 0 0 0 0 0 0 0 21 1783 2493 2321 2142 2209 2467 2497 2335 2049 1880 1845 1839 1808 1760 1922 2235 2195 2107 1834 1828 2035 2114 2146 2158 1925 1874 1766 1579
0 0 0 0 0 0 0 0 0 0 0 0 0 0 0 0 0 0 0 0 0 0 63 2275 2290 2280 2247 2060 2247 2430 2463 2539 2562 2426 2390 2332 2182 2167 1973 1814 1625 1601 1742 2074 2204 2235 2069 1773 2006
0 0 0 0 0 0 0 0 0 0 0 0 0 0 0 0 0 0 0 0 0 0 0 29 2418 2334 2337 2335 2415 2256 2262 2259 2237 2311 2134 1999 2107 2188 1885 1727 1955 2153 1621 2109 2011 2316 2352 2300 2299
0 0 0 0 0 0 0 0 0 0 0 0 0 0 0 0 0 0 0 0 0 0 0 0 1799 2412 2403 2415 2456 2147 2049 1956 1936 1887 2047 2229 2171 2054 2081 1785 1838 1526 1737 2009 2131 2069 2255 2402 2310
0 0 0 0 0 0 0 0 0 0 0 0 0 0 0 0 0 0 0 0 0 0 0 0 880 2543 2497 2460 2467 2424 2126 2089 1917 1905 2158 1953 1952 1984 1821 1771 1817 1886 1502 1410 1520 1831 1744 2002 1936
0 0 0 0 0 0 0 0 0 0 0 0 0 0 0 0 0 0 0 0 0 0 0 0 224 2063 2345 2061 2207 2070 2010 1880 1980 1863 1698 1869 1614 1348 1473 1712 1761 1804 1653 1644 1644 1362 1386 1429 1506
0 0 0 0 0 0 0 0 0 0 0 0 0 0 0 0 0 0 0 0 0 0 0 0 33 237 1462 1586 1556 1692 1633 1804 1795 1502 1492 1169 1271 1116 985 1143 1301 1581 1562 1456 1593 1469 1495 1479 1492
0 0 0 0 0 0 0 0 0 0 0 0 0 0 0 0 0 0 0 0 0 0 0 0 41 213 1091 1128 829 1252 1236 1224 1435 1269 1223 1221 1126 952 855 714 706 743 1051 1598 1711 1131 1568 1425 1502
0 0 0 0 0 0 0 0 0 0 0 0 0 0 0 0 0 0 0 0 0 0 0 1 6 94 573 739 679 657 667 730 779 785 802 637 509 491 579 600 594 594 903 1148 1081 1390 1153 1155 1181
0 0 0 0 0 0 0 0 0 0 0 0 0 0 0 0 0 0 0 0 0 0 1 3 41 155 505 574 669 487 381 312 263 113 18 10 0 0 3 26 80 154 176 392 544 817 791 1097 1237
0 0 0 0 0 0 0 0 0 0 0 0 0 0 0 0 0 0 0 0 0 0 0 4 20 60 263 449 491 311 179 50 0 0 0 0 0 0 0 0 0 0 0 52 56 40 233 613 790
0 0 0 0 0 0 0 0 0 0 0 0 0 0 0 0 0 0 0 0 0 0 0 2 8 11 20 44 181 167 80 39 0 0 0 0 0 0 0 0 0 0 0 0 0 0 13 439 315
0 0 0 0 0 0 0 0 0 0 0 0 0 0 0 0 0 0 0 2 4 0 1 2 10 17 35 80 134 156 95 22 12 0 0 0 0 0 0 0 0 0 0 0 0 4 7 4 250
0 0 0 0 0 0 0 0 0 0 0 0 0 0 0 0 0 0 0 3 3 2 9 11 20 26 44 57 105 109 31 16 0 0 0 0 0 0 0 0 0 0 0 0 0 0 0 7 12
0 0 0 0 0 0 0 0 0 0 0 0 0 0 0 0 0 0 0 0 1 2 11 2 2 9 34 98 86 130 26 0 0 0 0 0 0 0 0 0 0 0 0 0 0 0 0 0 1
0 0 0 0 0 0 0 0 0 0 0 0 0 0 0 0 0 0 0 0 5 2 1 2 1 1 1 13 34 65 0 0 0 0 0 0 0 0 0 0 0 0 0 0 0 0 0 0 0
0 0 0 0 0 0 0 0 0 0 0 0 0 0 0 0 0 0 0 0 0 0 0 0 0 0 2 2 8 2 0 0 0 0 0 0 0 0 0 0 0 0 0 0 0 0 0 0 0
0 0 0 0 0 0 0 0 0 0 0 0 0 0 0 0 0 0 0 0 0 0 0 0 0 0 0 0 0 0 0 0 0 0 0 0 0 0 0 0 0 0 0 0 0 0 0 0 0
0 0 0 0 0 0 0 0 0 0 0 0 0 0 0 0 0 0 0 0 0 0 0 0 0 0 0 0 0 0 0 0 0 0 0 0 0 0 0 0 0 0 0 0 0 0 0 0 2
0 0 0 0 0 0 0 0 0 0 0 0 0 0 0 0 0 0 0 0 0 0 0 0 0 0 0 0 0 0 0 0 0 0 0 0 0 0 0 0 0 0 0 0 0 0 0 0 0
0 0 0 0 0 0 0 0 0 0 0 0 0 0 0 0 0 0 0 0 0 0 0 0 0 0 0 0 0 0 0 0 0 0 0 0 0 0 0 0 0 0 0 0 0 0 0 0 0
13 12 5 0 0 0 0 0 0 0 0 0 0 0 0 0 0 0 0 0 0 0 0 0 0 0 0 0 0 0 0 0 0 0 0 0 0 0 0 0 0 0 0 0 0 0 0 0 0

GFSSGP_con_mucape_126.txt.gz
CAPE
0 0 0 0 0 0 0 0 0 0 0 0 0 0 0 0 0 15 893 1217 2143 1998 2200 2214 1762 1814 1935 2025 2099 2376 2753 2780 2555 2431 2420 2479 2346 2245 2295 2565 2511 2579 2835 2723 2053 1869 1696 1588 1665
0 0 0 0 0 0 0 0 0 0 0 0 0 0 0 0 7 606 877 2346 2225 2468 2184 2499 1881 1886 1911 1943 2054 2346 2874 2999 2866 2602 2537 2532 2436 2313 2391 2539 2563 2755 2895 2960 2370 2150 1955 1821 1354
0 0 0 0 0 0 0 0 0 0 0 0 0 0 0 0 3 189 1401 2495 2226 2249 2215 2726 2015 1937 1940 1863 1974 2127 2525 2747 2870 2810 2749 2658 2560 2517 2470 2471 2554 2973 3196 3256 2822 2762 2607 1591 1094
0 0 0 0 0 0 0 0 0 0 0 0 0 0 0 0 4 503 2119 2371 2444 2461 2491 2239 2018 2043 2023 1965 1965 2088 2138 2240 2519 2704 2937 2879 2758 2722 2603 2381 2659 3107 3300 3318 3181 3048 2660 1525 1033
0 0 0 0 0 0 0 0 0 0 0 0 0 0 0 0 314 1080 1993 2212 2332 2638 2735 2781 1980 2103 2124 2218 2147 2032 1993 1931 2117 2458 2734 2897 2975 2903 2694 2372 2553 2981 3262 3274 3066 2701 2496 1727 1164
0 0 0 0 0 0 0 0 0 0 0 0 0 0 0 0 0 0 160 1022 2315 2955 2957 2925 2107 2031 2158 2180 2133 1998 1866 1825 1875 2070 2425 2764 2812 2764 2628 2417 2540 2863 2980 2941 2762 2446 2325 1957 1345
0 0 0 0 0 0 0 0 0 0 0 0 0 0 0 0 0 0 0 70 1066 2529 3361 3360 3395 2890 2067 2212 2186 2089 1984 1760 1770 1791 1998 2320 2475 2499 2416 2357 2456 2742 2931 2898 2710 2456 2240 1960 1430
0 0 0 0 0 0 0 0 0 0 0 0 0 0 0 0 0 0 0 0 0 465 2383 3409 3507 3580 3536 3391 2174 2042 2016 1931 1772 1726 1757 1869 2069 2206 2230 2178 2262 2494 2618 2627 2629 2504 2327 1825 1398
0 0 0 0 0 0 0 0 0 0 0 0 0 0 0 0 0 0 0 0 0 0 0 1108 3192 3452 3619 3629 3243 2197 1843 1887 1894 1838 1745 1958 2239 2115 2271 2200 2043 2259 2367 2302 2283 2301 2126 1611 1410
0 0 0 0 0 0 0 0 0 0 0 0 0 0 0 0 0 0 0 0 0 0 0 0 357 2695 3531 3269 3279 3347 3270 2970 2855 2784 2888 2828 2755 2640 2102 1856 1835 1960 2147 2156 2072 2079 1960 1724 2082
0 0 0 0 0 0 0 0 0 0 0 0 0 0 0 0 0 0 0 0 0 0 0 0 0 1074 3169 3183 3359 3445 3286 3241 3263 3272 3086 2760 2610 2651 2576 2427 2429 2370 1541 2252 1938 2417 2564 2424 2251
0 0 0 0 0 0 0 0 0 0 0 0 0 0 0 0 0 0 0 0 0 0 0 0 41 242 2109 3215 3430 3423 3319 3194 3177 3009 2927 2933 2919 2752 2816 2412 2151 2248 2205 2213 2368 2389 2420 2432 2373
0 0 0 0 0 0 0 0 0 0 0 0 0 0 0 0 0 0 0 0 0 0 0 0 8 406 1530 2862 3365 3558 3460 3144 3008 2908 2855 2501 2691 2856 2557 2315 2366 2172 2259 2045 2117 2385 2136 2275 2232
0 0 0 0 0 0 0 0 0 0 0 0 0 0 0 0 0 0 0 0 0 0 0 0 0 0 437 1623 2589 2892 3086 2834 2419 2113 2378 2395 2302 2469 2361 2375 2112 2204 2305 2327 2118 1718 2102 2139 1937
0 0 0 0 0 0 0 0 0 0 0 0 0 0 0 0 0 0 0 0 0 0 0 0 0 0 0 1461 1938 2373 1915 1671 1751 1911 1517 1534 1884 1824 1645 2231 2136 2126 2230 2065 2089 1904 2115 1890 1777
0 0 0 0 0 0 0 0 0 0 0 0 0 0 0 0 0 0 0 0 0 0 0 0 0 0 0 1 966 1513 1451 1217 1422 1601 1253 972 1233 1671 1611 1287 1215 1239 983 1036 2130 2061 2076 1799 1743
0 0 0 0 0 0 0 0 0 0 0 0 0 0 0 0 0 0 0 0 0 0 0 0 0 1 1 155 553 738 853 942 930 981 897 983 921 806 843 748 822 772 852 847 852 1229 1763 1821 1568
0 0 0 0 0 0 0 0 0 0 0 0 0 0 0 0 0 0 0 0 0 0 0 1 0 0 2 4 418 620 491 500 484 597 599 682 652 485 200 43 15 25 52 102 260 860 872 1058 1270
0 0 0 0 0 0 0 0 0 0 0 0 0 0 0 0 0 0 0 0 0 0 0 1 4 4 8 0 11 512 572 544 483 321 249 140 14 0 0 0 2 1 0 3 4 27 195 879 1203
0 0 0 0 0 0 0 0 0 0 0 0 0 0 0 0 0 0 0 0 0 0 0 0 1 3 4 17 19 20 66 240 139 158 102 33 0 0 0 0 0 0 0 11 9 10 6 12 747
0 0 0 0 0 0 0 0 0 0 0 0 0 0 0 0 0 0 0 0 0 0 0 0 0 0 3 8 20 25 19 95 116 70 85 4 0 0 0 0 0 0 0 0 0 0 9 10 8
0 0 0 0 0 0 0 0 0 0 0 0 0 0 0 0 0 0 0 0 2 0 0 0 0 0 0 3 1 4 9 1 38 52 14 0 0 0 0 0 0 0 0 0 0 0 0 0 14
0 0 0 0 0 0 0 0 0 0 0 0 0 0 0 0 0 0 0 0 0 0 0 3 4 0 0 0 0 7 0 1 2 2 23 0 0 0 0 0 0 0 0 0 0 0 0 0 0
0 0 0 0 0 0 0 0 0 0 0 0 0 0 0 0 0 0 0 0 0 0 0 0 0 0 0 0 1 2 5 10 0 3 3 0 0 0 0 0 0 0 0 0 0 0 0 0 0
0 0 0 0 0 0 0 0 0 0 0 0 0 0 0 0 0 0 0 0 0 0 0 0 0 0 0 0 0 0 0 2 2 2 0 10 0 0 0 0 0 0 0 0 0 0 0 0 1
0 0 0 0 0 0 0 0 0 0 0 0 0 0 0 0 0 0 0 0 0 0 0 0 0 0 0 0 0 0 0 0 0 0 0 0 0 0 0 0 0 0 0 0 0 0 0 0 0
0 0 0 0 0 0 0 0 0 0 0 0 0 0 0 0 0 0 0 0 0 0 0 0 0 0 0 0 0 0 0 0 0 0 0 0 0 0 0 0 0 0 0 0 0 0 0 0 0
0 9 0 0 0 0 0 0 0 0 0 0 0 0 0 0 0 0 0 0 0 0 0 0 0 0 0 0 0 0 0 0 0 0 0 0 0 0 0 0 0 0 0 0 0 0 0 0 0
0 0 8 13 0 0 0 0 26 60 0 0 0 0 0 0 0 0 0 0 0 0 0 0 0 0 0 0 0 0 0 0 0 0 0 0 0 0 0 0 0 0 0 0 0 0 0 0 0
90 9 52 0 0 0 0 0 0 0 2 0 0 0 0 0 0 0 0 0 0 0 0 0 0 0 0 0 0 0 0 0 0 0 0 0 0 0 0 0 0 0 0 0 0 0 0 0 0

GFSSGP_con_mucape_129.txt.gz
CAPE
0 0 0 0 0 0 0 0 0 0 0 0 0 0 0 0 168 656 1848 2198 2354 2390 2533 1985 1661 2019 2195 2342 2528 2617 2679 2660 2559 2616 2640 2682 2599 2497 2606 2644 2671 2847 3359 2988 2290 2305 2213 2063 2009
0 0 0 0 0 0 1 0 0 0 0 0 0 0 0 0 266 610 1676 2085 2564 2610 2815 2220 1703 1925 2112 2211 2468 2745 3021 2956 2737 2697 2740 2761 2680 2539 2657 2672 2588 2814 3259 2950 2233 2159 2056 1905 1571
0 0 0 0 0 0 0 0 0 0 0 0 0 0 0 0 94 413 1921 1785 2077 2256 2235 2857 1941 1794 2001 2089 2322 2652 2984 2963 2829 2786 2890 2873 2748 2638 2714 2698 2651 2958 3280 2948 2320 2417 2477 1527 1252
0 0 0 0 0 0 0 0 0 0 0 0 0 0 0 63 521 1233 1542 1286 1555 2149 2764 2501 1960 1880 1866 2009 2176 2412 2639 2669 2684 2738 2911 2969 2910 2790 2713 2610 2793 3265 3351 3480 3202 3218 2695 1450 1080
0 0 0 0 0 0 0 0 0 0 0 0 0 0 0 0 3 222 1046 1131 1555 2091 2817 3161 2005 2037 2072 2057 2067 2129 2163 2363 2543 2731 2902 2955 2987 2918 2748 2499 2688 3104 3369 3390 3324 3080 2748 1815 1174
0 0 0 1 5 0 0 0 0 0 0 0 0 0 0 0 0 0 0 240 1064 2139 2797 3405 2393 2079 2149 2152 2081 1909 1847 1906 2168 2503 2751 3005 3001 2857 2765 2517 2493 2801 3086 3113 3004 2794 2585 2303 1456
0 0 0 0 0 0 0 0 0 0 0 0 0 0 0 0 0 0 0 0 45 1220 2581 3513 3855 3291 2052 2168 2159 2044 1944 1782 1843 1936 2253 2686 2795 2761 2701 2569 2469 2639 2841 2989 2950 2763 2400 2260 1874
0 0 0 0 0 2 0 0 0 0 0 0 0 0 0 0 0 0 0 0 0 0 114 1636 2876 3592 3877 3870 2182 2140 2052 1983 1778 1809 1780 1970 2305 2528 2537 2480 2332 2517 2711 2737 2728 2652 2436 2174 2008
0 0 0 0 0 0 0 0 0 0 0 0 0 0 0 0 0 0 0 0 0 0 0 0 364 1545 2951 3666 3558 2953 2021 2005 1929 1821 1684 1818 2064 2082 2357 2344 2193 2232 2398 2399 2520 2534 2500 2365 2042
0 0 0 0 0 0 0 0 0 0 0 0 0 0 0 0 0 0 0 0 0 0 0 0 107 506 1689 2266 2688 3704 3615 3014 2887 2747 2777 2833 2620 2457 2110 1792 1841 1902 2102 2209 2191 2109 2172 2195 1616
0 0 0 0 0 0 0 0 0 0 0 0 0 0 0 0 0 0 0 0 0 0 0 0 100 1449 948 1652 2002 2514 2762 3079 3204 3746 3615 3613 3359 3102 3134 2811 2450 2373 1861 2475 1910 2032 2042 1696 1715
0 0 0 0 0 0 0 0 0 0 0 0 0 0 0 0 0 0 0 0 0 0 0 0 0 21 990 1793 2209 2087 2145 2269 2362 2639 3341 3528 3478 3066 3165 2981 2914 2684 2520 2414 2594 2541 2507 2476 2564
0 0 0 0 0 0 0 0 0 0 0 0 0 0 0 0 0 0 0 0 0 0 0 0 0 0 0 1001 2019 2753 3237 3082 3067 3071 3044 2948 3180 3381 3246 2999 2888 2854 2905 2772 2418 2452 2282 2190 2161
0 0 0 0 0 0 0 0 0 0 0 0 0 0 0 0 0 0 0 0 0 0 0 0 0 0 0 47 1228 2004 2088 2354 2293 2016 2020 1990 1941 2260 2737 2729 2589 2544 2494 2467 2616 2644 2583 2666 2482
0 0 0 0 0 0 0 0 0 0 0 0 0 0 0 0 0 0 0 0 0 0 0 0 0 0 0 0 360 883 1365 1703 1799 2173 2152 1869 1719 1714 1813 1584 1730 1789 1847 2034 2380 2341 2341 2245 2289
0 0 0 0 0 0 0 0 0 0 0 0 0 0 0 0 0 0 0 0 0 0 0 0 0 0 0 0 0 696 759 1367 1322 1516 1421 1358 1197 921 1061 1362 1590 1449 1547 1377 1421 1853 1242 1663 2198
0 0 0 0 0 0 0 0 0 0 0 0 0 0 0 0 0 0 0 0 0 0 0 0 0 0 0 0 1 3 0 1054 924 1035 1231 1302 907 884 696 558 606 906 815 967 829 971 1181 1558 1294
0 0 0 0 0 0 0 0 0 0 0 0 0 0 0 0 0 0 0 0 0 0 0 0 0 0 0 0 0 1 13 252 380 679 769 846 660 598 496 455 288 161 30 1 122 582 668 603 652
0 0 0 0 0 0 0 0 0 0 0 0 0 0 0 0 0 0 0 0 0 0 0 0 0 0 0 0 0 0 0 0 97 226 296 368 466 360 370 363 107 0 0 4 6 11 15 24 613
0 0 0 0 0 0 0 0 0 0 0 0 0 0 0 0 0 0 0 0 0 0 0 0 0 0 0 0 0 0 0 0 1 2 7 31 58 62 114 64 0 0 0 0 0 0 8 1 2
0 0 0 0 0 0 0 0 0 0 0 0 0 0 0 0 0 0 0 0 0 0 0 0 0 0 0 0 0 0 0 0 0 0 2 0 41 20 27 0 0 0 0 0 0 0 0 0 5
0 0 0 0 0 0 0 0 0 0 0 0 0 0 0 0 0 0 0 0 0 0 0 0 0 0 0 0 0 0 0 0 0 0 0 1 1 13 7 0 0 0 0 0 0 0 0 0 0
0 0 0 0 0 0 0 0 0 0 0 0 0 0 0 0 0 0 0 0 0 0 0 0 0 0 0 0 0 0 0 0 0 0 1 0 0 0 0 0 0 0 0 0 0 0 0 0 0
0 0 0 0 0 0 0 0 0 0 0 0 0 0 0 0 0 0 0 0 0 0 0 0 0 0 0 0 0 0 0 0 0 0 0 2 0 0 0 0 0 0 0 0 0 0 0 0 0
0 0 0 0 0 0 0 0 0 0 0 0 0 0 0 0 0 0 0 0 0 0 0 0 0 0 0 0 0 0 0 0 0 0 0 0 2 0 0 0 0 0 0 0 0 0 0 0 0
0 0 0 0 0 0 0 0 0 0 0 0 0 0 0 0 0 0 0 0 0 0 0 0 0 0 0 0 0 0 0 0 0 0 0 0 0 0 0 0 0 0 0 0 0 0 0 0 0
0 0 0 0 0 0 0 0 0 0 0 0 0 0 0 0 0 0 0 0 0 0 0 0 0 0 0 0 0 0 0 0 0 0 0 0 0 0 0 0 0 2 0 0 0 0 0 0 0
0 1 0 0 0 0 0 0 22 0 0 0 0 0 0 0 0 0 0 0 0 0 0 0 0 0 0 0 0 0 0 0 0 0 0 0 0 0 0 0 0 0 0 0 0 0 0 0 0
0 0 0 7 0 0 0 0 14 44 2 0 0 0 0 0 0 0 0 0 0 0 0 0 0 0 0 0 0 0 0 0 0 0 0 0 0 0 0 0 0 0 0 0 0 0 0 0 0
10 0 0 0 0 0 0 13 20 0 10 2 0 0 0 0 0 0 0 0 0 0 0 0 0 0 0 0 0 0 0 0 0 0 0 0 0 0 0 0 0 0 0 0 0 0 0 0 0

GFSSGP_con_mucape_135.txt.gz
CAPE
0 0 0 0 0 0 0 0 0 0 0 0 0 106 875 1595 1489 1268 1919 1999 2156 1904 1592 1767 1857 2131 2384 2311 2013 1999 2243 2406 2470 2459 2424 2517 2436 2364 2370 2360 2535 2782 2977 2567 2396 2424 2524 2909 2015
0 0 0 0 0 0 0 0 0 0 0 0 0 0 454 1223 1231 1137 2130 2661 2723 2490 1590 1636 1824 2010 2236 2319 2222 2165 2391 2446 2494 2562 2509 2496 2465 2434 2437 2342 2341 2877 3100 2839 2464 2423 2414 2130 1501
0 0 0 0 0 0 0 0 0 0 0 0 0 6 15 952 932 960 1654 2382 2294 2043 2016 1652 1671 1816 2061 2249 2295 2297 2325 2257 2320 2516 2692 2640 2563 2521 2576 2382 2338 2790 3416 3175 2476 2564 2403 1503 1039
0 0 0 0 0 0 0 0 0 0 0 0 0 18 316 915 855 897 1409 2778 2813 2434 1735 1394 1455 1651 1832 1995 2300 2461 2482 2249 2196 2366 2718 2840 2783 2634 2591 2394 2417 2764 3190 3398 3059 2774 1960 1087 881
0 0 0 0 0 0 0 0 0 0 0 0 0 0 0 118 854 798 1340 1786 2952 2821 2724 1675 1594 1615 1705 1832 1893 2089 2355 2422 2355 2361 2598 2787 2868 2711 2486 2430 2421 2635 2934 3302 3095 2755 2168 1166 908
0 0 0 0 0 0 0 0 0 0 0 0 0 0 0 0 0 299 908 1024 1817 3109 3060 2856 2753 2233 1762 1700 1617 1659 1807 2146 2379 2405 2490 2719 2783 2632 2454 2303 2405 2547 2756 2935 3007 2853 2753 2188 1319
0 0 0 0 0 0 0 0 0 0 0 0 0 0 0 0 0 0 0 0 0 180 1314 1453 2130 2292 3013 3002 1883 1663 1604 1703 1940 2296 2434 2602 2592 2540 2484 2352 2218 2388 2553 2755 2886 2843 2750 2686 2400
0 0 0 0 0 0 0 0 0 0 0 0 0 0 0 0 0 0 0 0 0 0 0 252 821 882 1346 2086 3196 3066 2314 1674 1584 1656 1866 2294 2590 2651 2567 2479 2344 2170 2180 2360 2611 2763 2707 2588 2458
0 0 0 0 0 0 0 0 0 0 0 0 0 0 0 0 0 0 0 0 0 0 0 0 0 606 1153 1578 1954 3037 2759 2527 2050 1670 1644 1641 1855 2225 2470 2557 2508 2358 2174 2064 2180 2430 2556 2562 2463
0 0 0 0 0 0 0 0 0 0 0 0 0 0 0 0 0 0 0 0 0 0 0 0 0 0 0 802 1147 2172 2778 2777 2858 1981 1676 1542 1518 1547 2062 2347 2512 2432 2329 2091 2009 2078 2189 2115 2150
0 0 0 0 0 0 0 0 0 0 0 0 0 0 0 0 0 0 0 0 0 0 0 0 0 0 0 0 385 1279 1996 2116 2153 2386 2274 2136 2303 2528 2458 2566 2478 2246 2145 2048 1877 1851 1870 1810 1787
0 0 0 0 0 0 0 0 0 0 0 0 0 0 0 0 0 0 0 0 0 0 0 0 0 0 0 0 0 410 1116 1560 1834 1946 1840 1963 1751 2038 2253 2285 2182 2042 1827 1852 1760 1815 1732 1606 1648
0 0 0 0 0 0 0 0 0 0 0 0 0 0 0 0 0 0 0 0 0 0 0 0 0 0 0 0 0 0 410 1114 1406 1533 1608 1385 1203 1280 1438 1485 1546 1255 1394 1345 1332 1227 1193 1281 1332
0 0 0 0 0 0 0 0 0 0 0 0 0 0 0 0 0 0 0 0 0 0 0 0 0 0 0 0 0 0 0 0 703 1370 1279 1180 1130 989 977 989 694 1047 928 961 987 1043 932 899 782
0 0 0 0 0 0 0 0 0 0 0 0 0 0 0 0 0 0 0 0 0 0 0 0 0 0 0 0 0 0 0 0 0 30 570 1274 1098 715 740 703 838 395 527 215 287 323 396 459 568
0 0 0 0 0 0 0 0 0 0 0 0 0 0 0 0 0 0 0 0 0 0 0 0 0 0 0 0 0 0 0 0 0 0 2 88 488 335 200 366 675 558 197 1 0 33 66 9 40
0 0 0 0 0 0 0 0 0 0 0 0 0 0 0 0 0 0 0 0 0 0 0 0 0 0 0 0 0 0 0 0 0 0 0 0 0 16 208 98 108 296 58 53 1 0 0 0 0
0 0 0 0 0 0 0 0 0 0 0 0 0 0 0 0 0 0 0 0 0 0 0 0 0 0 0 0 0 0 0 0 0 0 0 0 0 0 2 8 39 32 34 1 75 75 17 0 0
0 0 0 0 0 0 0 0 0 0 0 0 0 0 0 0 0 0 0 0 0 0 0 0 0 0 0 0 0 0 0 0 0 0 0 0 0 0 4 17 17 5 16 0 18 172 78 50 2
0 0 0 0 0 0 0 0 0 0 0 0 0 0 0 0 0 0 0 0 0 0 0 0 0 0 0 0 0 0 0 0 0 0 0 0 0 0 0 0 2 8 3 8 8 50 55 43 15
0 0 0 0 0 0 0 0 0 0 0 0 0 0 0 0 0 0 0 0 0 0 0 0 0 0 0 0 0 0 0 0 0 0 0 0 0 0 0 0 0 0 0 4 12 13 45 64 47
0 0 0 0 0 0 0 0 0 0 0 0 0 0 0 0 0 0 0 0 0 0 0 0 0 0 0 0 0 0 0 0 0 0 0 0 0 0 0 0 0 0 0 0 0 7 10 15 71
0 0 0 0 0 0 0 0 0 0 0 0 0 0 0 0 0 0 0 0 0 0 0 0 0 0 0 0 0 0 0 0 0 0 0 0 0 0 0 0 0 0 0 0 0 0 1 3 16
0 0 0 0 0 0 0 0 0 0 0 0 0 0 0 0 0 0 0 0 0 0 0 0 0 0 0 0 0 0 0 0 0 0 0 0 0 0 0 0 0 0 0 0 0 0 0 0 0
0 0 0 0 0 0 0 0 0 0 0 0 0 0 0 0 0 0 0 0 0 0 0 0 0 0 0 0 0 0 0 0 0 0 0 0 0 0 0 0 0 0 0 0 0 0 0 0 0
0 0 0 0 0 0 0 0 0 0 0 0 0 0 0 0 0 0 0 0 0 0 0 0 0 0 0 0 0 0 0 0 0 0 0 0 0 0 0 0 0 0 0 0 0 0 0 0 0
0 0 0 0 0 0 0 0 0 0 0 0 0 0 0 0 0 0 0 0 0 0 0 0 0 0 0 0 0 0 0 0 0 0 0 0 0 0 0 0 0 0 0 0 0 0 0 0 0
0 0 0 0 0 0 0 0 0 0 0 0 0 0 0 0 0 0 0 0 0 0 0 0 0 0 0 0 0 0 0 0 0 0 0 0 0 0 0 0 0 0 0 0 0 0 0 0 0
0 0 0 0 0 0 0 0 0 0 0 0 0 0 0 0 0 0 0 0 0 0 0 0 0 0 0 0 0 0 0 0 0 0 0 0 0 0 0 0 0 0 0 0 0 0 0 1 3
0 0 0 0 0 0 0 0 0 0 1 7 9 2 0 0 0 0 0 0 0 0 0 0 0 0 0 0 0 0 0 0 0 0 0 0 0 0 0 0 0 0 0 0 0 0 0 0 0

GFSSGP_con_mucape_138.txt.gz
CAPE
0 0 0 0 0 0 0 0 0 0 42 399 1042 1250 1309 1318 1182 1218 1833 1742 1508 1515 1584 1762 1970 2185 2072 1930 1866 1946 2158 2290 2359 2353 2380 2308 2261 2360 2372 2444 2614 2822 2937 2353 2324 2471 2602 2746 1855
0 0 0 0 0 0 0 0 0 0 8 155 553 890 937 1117 1667 1941 2387 2220 1778 1312 1426 1604 1778 2032 2132 1913 1882 2007 2348 2424 2412 2360 2365 2403 2325 2324 2289 2265 2437 2773 3088 2492 2521 2552 2707 2443 1498
0 0 0 0 0 0 0 0 0 0 0 0 0 133 752 1101 1490 2175 2493 2009 1652 1596 1497 1606 1645 1891 2060 2064 1961 1988 2151 2176 2307 2395 2466 2488 2461 2457 2433 2210 2240 2870 3124 2773 2509 2605 2569 1645 1170
0 0 0 0 0 0 0 0 0 0 0 0 28 448 748 948 1913 2403 2579 2234 2055 1542 1301 1418 1498 1619 1872 2083 2144 2160 2035 1911 2018 2243 2563 2632 2609 2575 2483 2236 2346 2680 3236 3311 3024 2967 2323 1384 919
0 0 0 0 0 0 0 0 0 0 0 0 0 69 111 636 1808 2514 2578 2644 2624 2350 1671 1344 1289 1399 1581 1781 2030 2256 2327 2144 2053 2145 2415 2598 2675 2555 2338 2215 2296 2586 2874 3265 3150 2744 2257 1444 939
0 0 0 0 0 0 0 0 0 0 0 0 0 0 0 320 894 1372 2494 2758 2689 2562 2451 2437 2354 1820 1546 1445 1473 1625 1906 2215 2309 2255 2299 2539 2592 2475 2280 2162 2207 2257 2381 2625 2920 2733 2583 2153 1379
0 0 0 0 0 0 0 0 0 0 0 0 0 0 0 5 69 130 143 660 814 1040 1584 1768 1564 2375 2627 2768 2077 1572 1404 1644 2072 2238 2323 2446 2520 2469 2341 2217 2116 2211 2286 2385 2544 2672 2618 2598 2328
0 0 0 0 0 0 0 0 0 0 0 0 0 0 0 0 0 0 0 0 0 14 41 198 397 595 1246 1828 2633 2721 2236 1799 1573 1802 2185 2333 2462 2450 2381 2305 2189 2074 2099 2316 2453 2627 2657 2630 2567
0 0 0 0 0 0 0 0 0 0 0 0 0 0 0 0 0 0 0 0 0 0 0 0 0 241 672 1158 1487 2510 2618 2269 2092 1769 1531 1644 2062 2358 2449 2428 2323 2231 2112 1998 1988 2187 2351 2295 2420
0 0 0 0 0 0 0 0 0 0 0 0 0 0 0 0 0 0 0 0 0 0 0 0 0 0 0 4 768 1491 2062 2172 2304 2463 1981 1709 1458 1369 1765 2106 2246 2294 2230 2142 2051 1947 1940 2089 1775
0 0 0 0 0 0 0 0 0 0 0 0 0 0 0 0 0 0 0 0 0 0 0 0 0 0 0 0 0 254 1273 1570 1784 1855 2441 1882 1973 2070 2166 2095 2300 2245 2169 2104 2102 2011 1852 1734 1652
0 0 0 0 0 0 0 0 0 0 0 0 0 0 0 0 0 0 0 0 0 0 0 0 0 0 0 0 0 0 0 953 1386 1549 1642 1651 1911 1994 2001 1907 1991 1837 1843 1736 1741 1588 1491 1502 1437
0 0 0 0 0 0 0 0 0 0 0 0 0 0 0 0 0 0 0 0 0 0 0 0 0 0 0 0 0 0 0 0 545 1249 1341 1703 1705 1387 1209 980 1140 1230 1109 1087 1163 1098 1101 1057 896
0 0 0 0 0 0 0 0 0 0 0 0 0 0 0 0 0 0 0 0 0 0 0 0 0 0 0 0 0 0 0 0 0 22 571 1187 1191 1156 1144 957 811 669 391 348 486 626 779 757 737
0 0 0 0 0 0 0 0 0 0 0 0 0 0 0 0 0 0 0 0 0 0 0 0 0 0 0 0 0 0 0 0 0 0 0 30 567 577 860 674 807 803 587 228 189 151 3 54 76
0 0 0 0 0 0 0 0 0 0 0 0 0 0 0 0 0 0 0 0 0 0 0 0 0 0 0 0 0 0 0 0 0 0 0 0 0 1 4 184 229 321 117 80 167 133 50 0 0
0 0 0 0 0 0 0 0 0 0 0 0 0 0 0 0 0 0 0 0 0 0 0 0 0 0 0 0 0 0 0 0 0 0 0 0 0 0 0 0 0 22 48 0 6 20 0 0 0
0 0 0 0 0 0 0 0 0 0 0 0 0 0 0 0 0 0 0 0 0 0 0 0 0 0 0 0 0 0 0 0 0 0 0 0 0 0 0 0 0 0 2 5 4 0 0 0 6
0 0 0 0 0 0 0 0 0 0 0 0 0 0 0 0 0 0 0 0 0 0 0 0 0 0 0 0 0 0 0 0 0 0 0 0 0 0 0 0 0 0 0 0 0 0 0 0 0
0 0 0 0 0 0 0 0 0 0 0 0 0 0 0 0 0 0 0 0 0 0 0 0 0 0 0 0 0 0 0 0 0 0 0 0 0 0 0 0 0 0 0 0 0 0 0 0 0
0 0 0 0 0 0 0 0 0 0 0 0 0 0 0 0 0 0 0 0 0 0 0 0 0 0 0 0 0 0 0 0 0 0 0 0 0 0 0 0 0 0 0 0 0 0 0 0 0
0 0 0 0 0 0 0 0 0 0 0 0 0 0 0 0 0 0 0 0 0 0 0 0 0 0 0 0 0 0 0 0 0 0 0 0 0 0 0 0 0 0 0 0 0 0 0 0 0
0 0 0 0 0 0 0 0 0 0 0 0 0 0 0 0 0 0 0 0 0 0 0 0 0 0 0 0 0 0 0 0 0 0 0 0 0 0 0 0 0 0 0 0 0 0 0 0 0
0 0 0 0 0 0 0 0 0 0 0 0 0 0 0 0 0 0 0 0 0 0 0 0 0 0 0 0 0 0 0 0 0 0 0 0 0 0 0 0 0 0 0 0 0 0 0 0 0
0 0 0 0 0 0 0 0 0 0 0 0 0 0 0 0 0 0 0 0 0 0 0 0 0 0 0 0 0 0 0 0 0 0 0 0 0 0 0 0 0 0 0 0 0 0 0 0 0
0 0 0 0 0 0 0 0 0 0 0 0 0 0 0 0 0 0 0 0 0 0 0 0 0 0 0 0 0 0 0 0 0 0 0 0 0 0 0 0 0 0 0 0 0 0 0 0 0
0 0 0 0 0 0 0 0 0 0 0 0 0 0 0 0 0 0 0 0 0 0 0 0 0 0 0 0 0 0 0 0 0 0 0 0 0 0 0 0 0 0 0 0 0 0 0 0 0
0 0 0 0 0 0 0 0 0 0 0 0 0 0 0 0 0 0 0 0 0 0 0 0 0 0 0 0 0 0 0 0 0 0 0 0 0 0 0 0 0 0 0 0 0 0 0 0 0
0 0 0 0 0 0 0 0 0 0 0 0 0 0 0 1 0 0 0 0 0 0 0 0 0 0 0 0 0 0 0 0 0 0 0 0 0 0 0 0 0 0 0 0 0 0 0 0 0
0 0 0 0 0 0 0 0 0 0 0 0 0 0 0 0 0 0 0 0 0 0 0 0 0 0 0 0 0 0 0 0 0 0 0 0 0 0 0 0 0 0 0 0 0 0 0 0 0

GFSSGP_con_mucape_141.txt.gz
CAPE
0 0 0 0 0 0 0 0 0 0 423 913 730 948 1109 1242 993 962 1645 1592 1488 1474 1563 1833 1902 1876 1809 1738 1706 1845 2077 2274 2224 2268 2128 2316 2490 2561 2591 2617 2727 2943 2904 2346 2322 2438 2524 2520 1781
0 0 0 0 0 0 0 0 0 0 721 736 813 863 1029 1685 1791 1944 1678 1355 1399 1437 1486 1620 1901 1979 1774 1618 1678 1877 2239 2269 2302 2334 2257 2202 2351 2452 2459 2420 2486 2852 2976 2398 2493 2661 2916 2812 1638
0 0 0 0 0 0 0 0 70 385 460 19 253 454 833 1436 1900 2212 1685 1171 1368 1258 1481 1508 1638 1801 1899 1699 1671 1850 2037 2119 2163 2190 2393 2350 2357 2406 2414 2283 2445 2890 2870 2567 2554 2722 2592 1834 1276
0 0 0 0 0 0 0 0 0 9 0 50 262 574 1504 1837 2457 2284 2043 1683 1562 1348 1185 1183 1241 1418 1758 1894 1877 1872 1823 1801 1973 2140 2299 2453 2474 2505 2384 2103 2361 2842 2961 2891 2776 3098 2482 1531 1079
0 0 0 0 0 0 0 0 0 0 0 0 8 415 1506 2219 2313 2265 2100 1668 1022 1098 1074 837 967 1125 1206 1420 1758 2080 2077 1796 1801 1984 2266 2414 2484 2440 2285 2104 2211 2577 3164 3452 3304 2856 2389 1734 1097
0 0 0 0 0 0 0 0 0 0 0 0 0 91 907 1665 2246 2445 2287 1813 1631 1619 1544 1531 1476 1110 1073 1226 1365 1328 1563 1979 2077 2021 2110 2405 2486 2396 2241 2116 2119 2232 2402 2613 2850 2801 2487 2002 1360
0 0 0 0 0 0 0 0 0 0 0 0 0 0 816 1197 2129 2342 1871 1743 1696 1870 2031 1679 1940 2186 2160 2152 1688 1445 1242 1351 1464 1949 2120 2201 2346 2356 2267 2184 2087 2124 2096 2125 2305 2567 2549 2438 2174
0 0 0 0 0 0 0 0 0 0 0 0 0 0 106 352 998 806 310 180 364 619 515 483 543 909 1318 1799 2455 2314 1562 1564 1572 1584 1485 1920 2158 2286 2291 2245 2153 2056 1989 2047 2171 2291 2364 2472 2412
0 0 0 0 0 0 0 0 0 0 0 0 0 0 0 29 70 0 0 0 0 0 0 0 8 83 259 795 1033 2026 1983 2213 1935 1745 1612 1601 1441 1593 1989 2230 2280 2232 2153 2065 1909 1941 2067 2119 2166
0 0 0 0 0 0 0 0 0 0 0 0 0 0 0 0 0 0 0 0 0 0 0 0 0 0 0 0 34 733 1259 1770 1746 1691 2365 1880 1627 1500 1409 1483 1619 1766 1929 2057 2109 2082 1972 1920 1840
0 0 0 0 0 0 0 0 0 0 0 0 0 0 0 0 0 0 0 0 0 0 0 0 0 0 0 0 0 0 341 1073 1214 1143 1865 2192 1934 2167 1905 1808 1802 1898 1884 1794 1959 2220 1727 1639 1632
0 0 0 0 0 0 0 0 0 0 0 0 0 0 0 0 0 0 0 0 0 0 0 0 0 0 0 0 0 0 0 14 569 989 1175 1721 2198 2371 2068 1415 1546 1449 1633 1507 1564 1379 1240 1152 1069
0 0 0 0 0 0 0 0 0 0 0 0 0 0 0 0 0 0 0 0 0 0 0 0 0 0 0 0 0 0 0 0 0 112 904 1160 1263 1420 1441 1224 1150 960 824 982 846 801 835 838 874
0 0 0 0 0 0 0 0 0 0 0 0 0 0 0 0 0 0 0 0 0 0 0 0 0 0 0 0 0 0 0 0 0 0 0 480 707 644 1491 1144 888 874 742 638 439 204 238 182 114
0 0 0 0 0 0 0 0 0 0 0 0 0 0 0 0 0 0 0 0 0 0 0 0 0 0 0 0 0 0 0 0 0 0 0 0 0 9 184 653 255 432 516 569 227 294 485 227 63
0 0 0 0 0 0 0 0 0 0 0 0 0 0 0 0 0 0 0 0 0 0 0 0 0 0 0 0 0 0 0 0 0 0 0 0 0 0 0 0 0 2 111 52 54 31 12 0 0
0 0 0 0 0 0 0 0 0 0 0 0 0 0 0 0 0 0 0 0 0 0 0 0 0 0 0 0 0 0 0 0 0 0 0 0 0 0 0 0 0 0 0 0 0 0 0 0 0
0 0 0 0 0 0 0 0 0 0 0 0 0 0 0 0 0 0 0 0 0 0 0 0 0 0 0 0 0 0 0 0 0 0 0 0 0 0 0 0 0 0 0 0 0 0 0 0 0
0 0 0 0 0 0 0 0 0 0 0 0 0 0 0 0 0 0 0 0 0 0 0 0 0 0 0 0 0 0 0 0 0 0 0 0 0 0 0 0 0 0 0 0 0 0 0 0 0
0 0 0 0 0 0 0 0 0 0 0 0 0 0 0 0 0 0 0 0 0 0 0 0 0 0 0 0 0 0 0 0 0 0 0 0 0 0 0 0 0 0 0 0 0 0 0 0 0
0 0 0 0 0 0 0 0 0 0 0 0 0 0 0 0 0 0 0 0 0 0 0 0 0 0 0 0 0 0 0 0 0 0 0 0 0 0 0 0 0 0 0 0 0 0 0 0 0
0 0 0 0 0 0 0 0 0 0 0 0 0 0 0 0 0 0 0 0 0 0 0 0 0 0 0 0 0 0 0 0 0 0 0 0 0 0 0 0 0 0 0 0 0 0 0 0 0
0 0 0 0 0 0 0 0 0 0 0 0 0 0 0 0 0 0 0 0 0 0 0 0 0 0 0 0 0 0 0 0 0 0 0 0 0 0 0 0 0 0 0 0 0 0 0 0 0
0 0 0 0 0 0 0 0 0 0 0 0 0 0 0 0 0 0 0 0 0 0 0 0 0 0 0 0 0 0 0 0 0 0 0 0 0 0 0 0 0 0 0 0 0 0 0 0 0
0 0 0 0 0 0 0 0 0 0 0 0 0 0 0 0 0 0 0 0 0 0 0 0 0 0 0 0 0 0 0 0 0 0 0 0 0 0 0 0 0 0 0 0 0 0 0 0 0
0 0 0 0 0 0 0 0 0 0 0 0 0 0 0 0 0 0 0 0 0 0 0 0 0 0 0 0 0 0 0 0 0 0 0 0 0 0 0 0 0 0 0 0 0 0 0 0 0
0 0 0 0 0 0 0 0 0 0 0 0 0 0 0 0 0 0 0 0 0 0 0 0 0 0 0 0 0 0 0 0 0 0 0 0 0 0 0 0 0 0 0 0 0 0 0 0 0
0 0 1 2 0 0 0 0 0 0 0 0 0 0 0 0 0 0 0 0 0 0 0 0 0 0 0 0 0 0 0 0 0 0 0 0 0 0 0 0 0 0 0 0 0 0 0 0 0
0 0 0 0 0 1 0 0 0 0 0 0 0 0 0 0 0 0 0 1 0 0 0 0 0 0 0 0 0 0 0 0 0 0 0 0 0 0 0 0 0 0 0 0 0 0 0 0 0
0 0 0 0 0 0 0 0 0 0 0 0 0 0 0 0 0 1 1 10 0 0 0 0 0 0 0 0 0 0 0 0 0 0 0 0 0 0 0 0 0 0 0 0 0 0 0 0 0

GFSSGP_con_mucape_144.txt.gz
CAPE
0 0 0 0 0 0 0 0 0 0 334 433 397 670 1192 1232 911 846 1659 1379 1401 1420 1641 1753 1652 1654 1676 1729 1758 1931 2260 2286 2169 2229 2375 2522 2611 2614 2654 2757 2959 3131 2958 2271 2186 2282 2244 2130 1700
0 0 0 0 0 0 0 0 0 0 739 822 710 892 1247 1653 1780 1727 1339 1307 1224 1245 1353 1578 1719 1617 1553 1552 1670 1901 2274 2240 2312 2131 2237 2453 2585 2658 2654 2604 2650 2887 2890 2372 2397 2563 2716 2612 1498
0 0 0 0 0 0 0 0 0 584 416 100 351 523 1216 1659 1951 1716 1008 1171 1082 1065 1075 1183 1417 1616 1707 1549 1558 1747 1912 2006 2037 2121 2154 2224 2465 2534 2546 2353 2456 2895 2785 2429 2501 2724 2766 2234 1301
0 0 0 0 0 0 0 0 383 520 93 66 477 835 1318 1882 2118 1556 1263 1050 760 692 644 828 955 1094 1412 1765 1923 1801 1631 1653 1823 1948 2166 2257 2306 2383 2297 2136 2401 2764 2853 2561 2560 2955 2227 1386 1073
0 0 0 0 0 0 0 0 413 138 0 109 318 1267 1717 2088 1855 1786 1315 1362 1378 1075 689 634 734 773 828 1053 1418 1582 1800 1751 1644 1829 2098 2212 2318 2313 2198 1969 2068 2490 2994 3169 3038 2828 2381 1644 1091
0 0 0 0 0 0 0 0 54 0 0 16 879 1084 1690 2355 2031 1929 1657 1327 828 623 864 971 849 982 1056 1154 1175 1112 1130 1282 1636 1858 1885 2149 2312 2214 2105 1990 1983 2093 2243 2478 2828 2792 2453 1987 1377
0 0 0 0 0 0 0 0 0 0 0 89 311 819 1026 2321 2118 1899 1616 1237 1270 1307 1439 1615 1596 1440 1808 1624 1072 941 886 905 1166 1269 1466 1856 2040 2166 2173 2123 2000 1962 1936 1919 1993 2168 2382 2235 1905
0 0 0 0 0 0 0 0 0 0 0 0 0 138 953 1811 2146 2128 1644 1126 1000 1189 946 718 903 1450 1482 1875 2256 1880 1455 1151 1094 1087 1199 1298 1330 1851 2056 2125 2088 2032 1942 1839 1851 1948 2022 2037 1809
0 0 0 0 0 0 0 0 0 0 0 0 0 4 292 1516 1747 1616 642 170 164 140 95 58 69 54 133 556 891 1765 1629 1845 1804 1591 1462 1408 1403 1259 1131 1400 1509 1636 1847 2003 2017 1963 1878 1792 1738
0 0 0 0 0 0 0 0 0 0 0 0 0 0 778 1173 1036 518 2 0 0 0 0 0 0 0 0 0 6 514 931 982 659 1482 1316 2273 1811 1744 1483 1351 1446 1497 1557 1693 1791 1895 1885 1889 1812
0 0 0 0 0 0 0 0 0 0 0 0 0 0 329 176 104 7 0 0 0 0 0 0 0 0 0 0 0 0 125 306 436 412 846 1359 2077 1885 1557 1429 1516 1080 1237 1406 1187 1478 1858 1537 1405
0 0 0 0 0 0 0 0 0 0 0 0 0 0 0 0 0 0 0 0 0 0 0 0 0 0 0 0 0 0 0 0 0 297 442 879 1580 2100 1722 1628 1623 1352 1170 987 995 927 1127 1002 937
0 0 0 0 0 0 0 0 0 0 0 0 0 0 0 0 0 0 0 0 0 0 0 0 0 0 0 0 0 0 0 0 0 0 0 112 648 1130 934 1236 1198 1339 1351 927 693 639 552 403 360
0 0 0 0 0 0 0 0 0 0 0 0 0 0 0 0 0 0 0 0 0 0 0 0 0 0 0 0 0 0 0 0 0 0 0 0 0 10 335 154 183 319 382 336 344 595 515 490 427
0 0 0 0 0 0 0 0 0 0 0 0 0 0 0 0 0 0 0 0 0 0 0 0 0 0 0 0 0 0 0 0 0 0 0 0 0 0 0 0 1 1 11 1 2 9 311 0 0
0 0 0 0 0 0 0 0 0 0 0 0 0 0 0 0 0 0 0 0 0 0 0 0 0 0 0 0 0 0 0 0 0 0 0 0 0 0 0 0 0 0 0 0 0 0 0 0 0
0 0 0 0 0 0 0 0 0 0 0 0 0 0 0 0 0 0 0 0 0 0 0 0 0 0 0 0 0 0 0 0 0 0 0 0 0 0 0 0 0 0 0 0 0 0 0 0 0
0 0 0 0 0 0 0 0 0 0 0 0 0 0 0 0 0 0 0 0 0 0 0 0 0 0 0 0 0 0 0 0 0 0 0 0 0 0 0 0 0 0 0 0 0 0 0 0 0
0 0 0 0 0 0 0 0 0 0 0 0 0 0 0 0 0 0 0 0 0 0 0 0 0 0 0 0 0 0 0 0 0 0 0 0 0 0 0 0 0 0 0 0 0 0 0 0 0
0 0 0 0 0 0 0 0 0 0 0 0 0 0 0 0 0 0 0 0 0 0 0 0 0 0 0 0 0 0 0 0 0 0 0 0 0 0 0 0 0 0 0 0 0 0 0 0 0
0 0 0 0 0 0 0 0 0 0 0 0 0 0 0 0 0 0 0 0 0 0 0 0 0 0 0 0 0 0 0 0 0 0 0 0 0 0 0 0 0 0 0 0 0 0 0 0 0
0 0 0 0 0 0 0 0 0 0 0 0 0 0 0 0 0 0 0 0 0 0 0 0 0 0 0 0 0 0 0 0 0 0 0 0 0 0 0 0 0 0 0 0 0 0 0 0 0
0 0 0 0 0 0 0 0 0 0 0 0 0 0 0 0 0 0 0 0 0 0 0 0 0 0 0 0 0 0 0 0 0 0 0 0 0 0 0 0 0 0 0 0 0 0 0 0 0
0 0 0 0 0 0 0 0 0 0 0 0 0 0 0 0 0 0 0 0 0 0 0 0 0 0 0 0 0 0 0 0 0 0 0 0 0 0 0 0 0 0 0 0 0 0 0 0 0
0 0 0 0 0 0 0 0 0 0 0 0 0 0 0 0 0 0 0 0 0 0 0 0 0 0 0 0 0 0 0 0 0 0 0 0 0 0 0 0 0 0 0 0 0 0 0 0 0
0 0 0 0 0 0 0 0 0 0 0 0 0 0 0 0 0 0 0 0 0 0 0 0 0 0 0 0 0 0 0 0 0 0 0 0 0 0 0 0 0 0 0 0 0 0 0 0 0
0 0 0 0 0 0 0 0 0 0 0 0 0 0 0 0 0 0 0 0 0 0 0 0 0 0 0 0 0 0 0 0 0 0 0 0 0 0 0 0 0 0 0 0 0 0 0 0 0
0 0 0 0 0 0 0 0 0 0 0 0 0 0 0 0 0 0 0 0 0 0 0 0 0 0 0 0 0 0 0 0 0 0 0 0 0 0 0 0 0 0 0 0 0 0 0 0 0
0 0 0 0 0 0 0 0 0 0 0 0 0 0 0 0 0 0 0 0 0 0 0 0 0 0 0 0 0 0 0 0 0 0 0 0 0 0 0 0 0 0 0 0 0 0 0 0 0
0 0 0 0 0 0 0 0 0 0 0 0 0 0 0 0 0 0 0 0 0 0 0 0 0 0 0 0 0 0 0 0 0 0 0 0 0 0 0 0 0 0 0 0 0 0 0 0 0